BIRD-G (42821 NORAD) Tracking and Keplerian Element Data

This shows tracking and keplerian element data for the satellite.

Feedback or suggestion? Click here.




ElementValue
Catalog42821
NameBIRD-G
Epoch Orbit8100
Epoch Day341.01387622
Epoch Year2018
RAAN197.5457
Inclination51.6269
Eccentricity0.000351
Argument of Perigee134.7705
Mean Anonmoly225.3581
Mean Motion15.7662112
Decay Rate0.0003388
L11 42821U 98067MV 18341.01387622 .00033880 00000-0 21077-3 0 9995
L22 42821 51.6269 197.5457 0003510 134.7705 225.3581 15.76621120 81008

Live tracking and technical data element details for BIRD-G (NORAD 42821). BIRD-G can be tracked NOW for your location showing map with azimuth and elevation plus other details from your city location.

Track the satellite on the map from your city or location and see movement details for azimuth, elevation, latitude, longitude, range, height, and movement on the map or in text.







IsCatalogInMostPopularTable: catalog: 42821, numindb: 111
Update: records affected: 1



GetName: 42821 BIRD-G

Hit Count: updated at: Thu, 13 Dec 2018 03:46:35 GMT